RH
85 76 66 47 27 17 16 18 19 19 17 13 10 9 10 21 42 60 63 54 47 39 28 26 26 20 20 21 17 14 11 10 10 9 11 13 12 14 14 15 16 15 17 19 25 47 77 97 96 86 81 75 72 67 58 64 73 72 73 71 68 69 63 56 61 68 77 81 79 78 81 82 82 89
91 82 73 55 34 20 18 19 20 20 19 14 10 10 12 19 33 51 64 63 53 46 38 35 37 32 25 24 21 17 14 11 11 12 12 13 13 13 13 14 15 16 16 17 22 34 60 85 88 86 86 75 67 67 63 67 72 71 77 75 72 73 66 61 61 57 61 71 74 71 74 83 81 82
95 86 79 65 42 26 21 21 21 21 20 15 10 9 11 18 27 37 60 75 63 50 48 45 44 41 34 30 25 21 17 13 14 14 13 13 13 13 13 14 14 16 16 15 19 21 30 46 50 64 86 80 67 69 66 65 70 72 71 68 71 71 59 59 66 59 50 51 64 72 70 74 77 80
97 90 84 71 48 31 26 24 24 25 24 17 11 11 10 16 27 36 58 76 66 53 53 52 52 52 46 38 29 21 19 17 16 17 16 14 13 12 12 13 14 16 15 14 16 16 19 22 22 44 78 78 66 71 69 65 70 75 69 62 71 80 67 60 64 65 58 51 62 79 80 80 86 91
98 93 88 76 53 38 34 32 30 31 28 19 12 11 12 15 25 38 54 69 68 61 59 59 61 60 57 50 32 22 24 22 18 18 16 14 14 13 12 13 15 15 15 15 15 14 15 16 21 49 81 82 70 72 73 71 73 78 78 68 69 80 77 69 67 63 61 59 61 76 91 96 96 98
99 96 91 82 63 49 46 42 38 38 35 24 13 12 13 15 24 36 50 65 72 71 69 67 67 67 68 56 33 32 43 34 20 19 17 16 16 15 17 20 18 17 18 16 14 14 16 18 25 50 84 92 79 73 78 84 84 80 83 78 72 78 78 75 71 57 58 69 65 70 90 97 95 98
100 98 95 88 71 59 55 47 43 45 40 27 16 13 13 17 27 38 50 65 75 78 75 75 80 79 70 53 43 58 67 46 28 24 17 16 20 25 36 38 24 17 20 17 14 14 15 19 26 42 73 87 75 71 81 91 89 80 83 87 80 78 77 79 80 61 56 75 78 78 91 95 95 100
100 99 97 91 77 66 60 52 49 48 43 32 20 14 15 19 29 41 55 67 76 81 80 81 88 83 68 61 66 78 77 54 38 32 25 28 38 45 55 53 33 20 21 17 14 16 15 18 25 31 49 65 62 64 75 85 89 80 80 90 89 86 82 79 84 70 60 78 90 89 92 92 96 101
99 100 98 93 83 72 64 57 52 50 47 38 24 17 17 19 29 45 60 69 76 83 84 84 87 83 76 78 81 84 84 67 43 34 42 56 68 74 67 50 35 26 21 17 14 14 14 16 22 25 33 45 51 58 66 78 91 88 81 84 86 90 92 88 90 79 68 84 98 97 96 95 97 100
99 100 99 95 88 77 67 59 54 53 52 43 28 20 18 20 34 50 60 70 78 80 80 84 91 92 89 91 92 91 93 84 62 55 66 70 76 91 77 42 31 30 21 16 14 13 15 18 22 26 31 39 46 58 72 83 92 92 88 90 88 88 92 93 96 91 82 91 100 99 99 96 95 99
100 100 99 98 92 81 70 61 56 57 57 46 30 22 20 25 38 48 58 71 77 75 80 90 96 95 94 96 100 99 98 95 85 85 94 75 53 66 66 38 27 26 18 15 15 18 22 22 24 28 32 44 53 59 72 82 84 80 79 86 90 90 91 93 96 93 89 95 100 100 100 97 96 100
100 100 100 99 95 84 71 62 60 62 60 48 32 22 21 27 36 48 62 72 72 75 88 98 95 95 100 101 100 100 99 98 92 94 106 89 54 49 52 36 28 26 20 17 18 24 29 24 26 34 37 47 60 64 69 77 78 72 68 70 74 77 83 92 99 97 90 93 100 100 99 97 96 100
100 100 100 100 97 86 72 65 64 67 62 48 31 21 22 27 35 46 59 70 79 89 98 100 98 100 101 99 99 100 100 101 98 96 101 96 76 64 49 29 32 39 29 21 19 21 30 36 43 54 53 51 61 70 74 81 83 74 67 66 66 67 70 78 92 100 97 98 101 99 100 100 98 101
99 100 99 100 100 88 74 67 69 70 63 47 30 21 21 24 31 46 67 86 97 100 100 99 100 101 100 100 102 100 97 100 101 100 102 99 86 76 55 30 33 45 37 33 30 19 33 64 68 62 63 59 64 76 79 82 87 78 69 66 65 66 66 66 73 82 87 93 98 99 101 100 97 102
100 101 99 100 101 89 75 70 73 72 62 45 28 21 24 28 40 64 88 99 100 99 100 100 100 100 100 98 94 92 96 101 102 99 99 97 88 85 83 67 51 47 50 60 56 32 47 88 78 50 55 64 66 77 81 83 85 81 77 76 72 68 67 66 67 69 73 80 87 95 101 102 101 102
100 100 99 102 100 86 74 72 75 72 60 42 28 37 58 68 74 90 101 101 100 101 100 98 100 99 95 91 87 90 97 96 90 86 84 92 97 94 101 98 70 54 69 91 85 53 50 74 65 44 59 74 73 79 83 84 87 87 91 95 92 86 82 80 80 80 81 81 80 83 88 93 95 89
101 99 100 102 95 81 75 76 78 72 56 36 29 52 85 97 96 99 97 91 93 98 101 103 98 85 81 89 81 69 73 76 76 83 87 95 102 96 101 105 80 64 81 99 87 53 35 50 60 61 74 82 81 83 82 82 84 85 89 96 97 98 99 97 94 94 95 88 75 65 63 66 64 57
100 99 101 99 88 78 76 79 79 69 51 34 27 38 58 69 74 81 84 84 89 93 92 84 67 52 60 75 56 34 53 81 90 99 102 100 102 98 90 81 60 49 60 72 73 56 43 57 75 78 82 85 84 84 84 84 86 86 88 94 97 99 101 101 100 100 101 95 81 65 55 53 47 42
100 100 101 95 82 76 78 81 77 63 45 32 27 27 31 39 52 64 75 80 75 67 59 52 52 60 68 71 62 60 82 100 96 94 90 78 70 66 53 39 30 28 31 46 72 76 65 75 88 85 86 91 86 82 81 80 80 83 85 89 96 100 101 100 100 100 101 100 93 75 57 52 50 51
100 101 99 90 80 78 81 81 72 55 39 30 26 25 30 42 56 62 63 57 46 46 59 69 77 80 67 54 57 68 71 64 55 51 46 36 31 33 32 27 27 32 36 50 79 91 84 89 97 91 90 94 89 82 79 75 72 74 76 79 84 92 99 102 100 100 100 100 94 74 53 53 58 60
100 101 95 86 81 82 83 77 63 45 32 26 25 28 38 51 54 47 40 35 30 36 50 55 51 45 35 27 30 34 30 26 27 26 24 26 30 35 39 38 39 47 56 67 88 100 96 95 97 95 94 98 96 86 78 73 70 70 78 86 88 89 95 100 100 101 101 101 96 76 54 58 70 73
101 99 91 85 84 84 80 67 49 36 28 24 26 32 40 44 38 32 30 29 27 27 27 26 25 25 25 25 24 24 23 23 25 26 28 33 41 46 49 53 59 63 67 77 94 103 100 97 100 100 98 96 92 84 78 76 74 74 81 91 95 96 98 100 101 101 99 97 95 77 59 66 82 89
100 96 90 88 87 83 72 53 36 34 33 27 27 32 35 32 29 30 30 25 22 24 24 24 26 27 27 27 27 25 25 24 24 27 33 39 48 56 59 65 75 77 74 82 97 103 101 100 100 100 101 96 85 77 80 85 83 80 80 83 87 92 96 99 100 99 92 86 80 64 54 69 86 92
99 97 94 93 89 79 63 43 32 36 37 30 27 30 29 28 29 29 27 23 22 23 25 26 28 30 30 31 30 27 26 25 24 26 31 37 46 56 60 67 79 82 78 83 96 102 101 101 99 99 102 101 91 82 85 88 84 80 79 81 82 83 88 97 100 93 78 68 63 52 49 66 77 77
99 98 97 96 90 78 61 44 34 33 33 30 25 25 30 34 32 26 22 22 24 25 27 29 30 32 32 31 32 30 27 26 25 24 27 32 40 50 57 65 75 82 83 89 100 104 100 99 101 100 99 102 99 94 91 86 81 79 80 83 85 86 91 99 101 93 71 53 51 49 49 59 58 53
98 96 95 94 91 81 64 46 34 29 30 30 26 30 40 40 29 21 20 23 26 27 29 31 31 34 36 34 33 32 30 28 27 25 25 27 33 43 54 67 81 90 93 96 102 103 99 99 101 100 100 101 99 99 98 88 80 78 82 86 88 91 98 99 101 99 77 50 45 45 44 48 39 36
97 95 95 95 97 90 67 41 31 30 29 28 29 36 40 30 20 20 23 25 28 29 31 33 35 36 36 35 35 34 32 31 29 27 26 25 28 36 48 67 88 98 98 97 101 101 99 100 101 99 101 101 98 100 102 94 84 81 84 87 87 90 98 99 100 101 79 49 43 43 39 42 34 31
94 94 97 99 102 95 69 42 34 33 28 25 28 30 26 19 20 24 25 27 30 32 33 35 36 37 37 37 38 37 35 34 32 30 28 25 25 29 39 59 83 98 100 99 100 101 99 100 101 100 100 101 100 101 99 93 90 88 88 90 87 90 98 99 101 101 76 47 41 41 39 39 31 29
95 96 98 101 103 93 68 46 37 32 26 24 24 21 19 20 23 25 27 31 32 33 35 36 36 36 37 38 38 39 39 37 34 31 30 27 25 24 29 45 69 89 99 101 100 100 101 100 100 100 100 100 100 100 99 96 95 95 97 97 91 91 98 100 101 94 68 43 38 37 35 32 23 27
99 99 100 102 100 83 56 36 29 26 24 23 21 19 20 23 26 28 30 33 33 34 36 36 35 35 36 37 39 40 40 40 38 35 32 30 27 25 24 32 50 72 91 100 101 100 100 100 101 100 100 100 100 100 100 100 99 98 100 100 96 95 97 100 95 77 51 37 35 32 33 31 19 26
100 100 102 99 82 55 33 25 26 26 24 20 18 20 23 25 28 31 32 33 35 36 35 34 35 36 36 37 38 38 39 40 40 39 36 33 30 28 25 26 36 53 72 88 98 102 101 100 101 100 99 100 100 100 100 100 100 100 99 100 101 97 94 99 92 62 39 40 42 33 29 26 17 27
100 100 95 78 52 30 23 26 28 24 20 18 19 23 26 28 31 33 34 34 34 34 34 35 36 37 37 37 36 36 38 40 39 40 39 37 34 30 27 27 32 43 56 69 83 96 101 100 100 100 101 100 99 100 101 100 100 101 99 100 102 94 91 102 93 53 35 56 64 46 31 23 19 39
100 99 83 54 30 23 25 27 26 21 18 19 22 25 28 32 34 34 34 35 34 34 36 37 37 38 38 38 36 35 35 37 39 40 40 40 38 34 30 28 30 39 51 60 70 84 97 101 101 100 100 100 99 100 100 99 100 101 99 100 101 97 97 104 85 44 37 70 88 78 67 59 52 65
97 97 76 42 23 23 26 25 22 19 18 21 25 28 32 34 36 35 35 35 36 36 36 37 39 41 41 40 40 38 36 35 36 39 41 44 43 39 35 31 29 32 42 54 65 77 90 97 99 99 100 101 100 100 100 100 100 101 100 99 100 99 100 99 84 64 66 87 100 99 92 81 75 81
100 93 62 30 21 25 26 23 19 17 20 24 27 31 35 36 36 36 35 36 37 37 38 41 43 45 45 45 44 42 40 38 36 36 39 42 43 43 41 37 33 30 33 43 57 71 84 93 95 94 95 97 98 99 100 100 99 100 100 100 100 100 100 99 95 92 95 97 98 98 89 73 67 72
98 78 43 21 23 27 23 19 18 18 22 27 30 34 37 37 37 36 36 36 37 39 41 44 46 47 48 48 47 46 45 44 40 38 37 38 42 46 45 41 38 33 31 35 46 61 75 87 95 96 93 94 98 100 99 99 100 100 100 100 100 99 100 100 97 93 97 99 95 93 90 77 63 56
78 49 27 22 24 23 20 18 18 20 24 29 33 36 38 38 37 37 36 37 39 41 43 46 48 50 50 50 50 50 49 47 46 44 42 40 42 45 47 46 44 39 34 32 37 48 60 73 89 100 100 96 98 100 99 98 100 101 100 100 101 99 99 101 98 92 96 102 96 91 95 88 70 61
57 28 21 26 24 20 19 18 17 21 27 31 34 37 38 38 38 37 37 39 40 42 46 48 50 51 52 51 51 51 51 51 50 49 47 45 44 46 50 51 48 45 41 35 31 37 47 57 73 92 102 102 100 100 99 99 98 100 100 99 100 101 99 100 101 98 98 102 100 98 101 94 77 72
64 33 22 24 23 20 18 17 18 23 28 32 36 37 38 39 38 36 37 39 42 44 48 50 52 53 53 53 53 53 54 54 52 51 52 52 50 50 52 54 52 49 46 42 35 33 36 42 54 71 90 101 103 100 100 101 100 100 101 99 99 101 100 98 101 100 98 101 99 92 89 89 80 74
80 50 28 23 24 20 16 17 20 24 29 34 36 37 39 40 38 37 37 39 42 46 50 52 53 55 55 55 56 57 58 59 58 56 56 56 56 55 54 55 57 54 50 48 44 37 33 36 41 51 67 85 97 99 99 101 100 99 100 100 99 100 100 99 100 100 98 101 98 87 83 90 92 86
80 52 29 24 25 20 16 17 20 24 30 35 36 37 40 40 38 37 38 40 43 47 51 53 55 57 57 58 58 58 60 62 61 60 58 57 57 59 56 54 55 55 54 54 51 44 38 35 34 37 45 56 68 79 87 93 97 98 100 100 100 100 100 100 101 100 99 100 100 96 95 99 99 96
65 40 25 24 25 21 17 17 20 25 30 35 37 39 40 41 40 37 37 40 43 47 51 54 56 58 60 61 61 61 62 64 65 64 63 60 57 58 59 58 57 57 58 58 57 52 46 39 34 33 34 35 40 52 66 77 87 95 100 100 100 100 100 99 100 100 100 100 100 100 100 101 100 99
48 28 24 26 24 20 17 17 20 25 30 34 38 40 41 42 41 38 37 40 43 47 52 55 57 60 62 62 63 64 65 67 68 68 68 65 62 60 61 62 63 62 59 58 56 53 50 46 39 34 32 31 31 37 45 56 70 85 94 98 99 100 100 100 100 100 100 100 99 99 99 99 99 99
43 26 24 26 24 20 17 17 20 25 30 34 38 41 42 43 42 39 39 41 42 46 51 54 58 62 64 64 65 67 67 68 71 73 73 70 67 65 64 64 65 63 59 55 53 50 50 50 46 41 36 33 31 31 33 39 51 66 80 90 96 99 99 100 100 100 100 100 100 99 99 98 96 96
49 32 25 25 25 21 17 17 20 24 28 33 39 42 43 44 43 42 41 42 43 45 49 53 58 63 65 66 67 68 69 71 73 76 77 76 71 68 66 65 64 64 62 59 56 53 51 50 48 46 43 38 34 32 30 30 35 45 59 72 84 92 97 99 100 100 100 100 100 100 100 100 99 98
Wind_Speed
39 38 37 37 37 37 36 35 34 32 31 29 28 29 29 30 30 26 27 30 29 28 30 30 29 27 27 29 30 32 34 33 32 34 34 33 32 32 33 33 33 33 33 33 34 33 33 34 35 37 41 43 45 47 46 44 43 44 44 45 46 46 46 47 48 48 48 49 51 52 48 44 45 42
40 39 38 37 37 36 35 35 33 31 31 30 28 29 29 29 31 29 30 34 30 28 29 29 28 29 30 33 35 36 37 35 34 35 35 34 33 34 35 35 34 33 32 33 33 33 34 35 36 37 39 41 43 45 44 41 42 44 44 44 47 48 46 46 48 48 49 50 50 49 48 45 46 45
40 39 39 38 37 36 35 34 33 31 31 30 28 29 29 29 31 30 31 35 34 28 28 30 31 34 35 36 37 38 39 38 37 36 36 35 34 35 36 36 36 34 32 32 32 33 35 36 37 37 37 40 42 43 42 40 40 42 43 43 46 48 47 46 47 47 49 53 50 46 48 48 46 46
41 40 39 38 36 36 34 33 32 31 31 30 29 29 29 30 31 31 32 37 39 34 32 35 36 36 37 38 38 40 41 39 38 37 37 36 36 37 38 38 36 33 32 33 33 34 37 37 38 37 36 39 41 42 41 40 39 41 43 43 44 46 46 45 47 48 48 51 50 45 45 47 45 44
42 41 39 38 36 35 34 33 32 31 30 30 29 29 30 31 31 32 33 37 41 39 35 35 37 37 38 39 39 40 42 41 39 39 38 37 37 38 39 38 35 32 33 35 35 36 38 38 38 37 37 38 40 41 40 39 40 41 41 42 43 44 45 45 47 50 49 49 49 46 43 43 43 42
43 43 40 38 36 35 35 34 33 32 30 29 30 30 30 32 32 33 34 35 38 39 36 35 37 37 37 39 39 40 42 43 41 39 38 38 39 39 38 37 35 34 37 39 37 37 39 40 40 38 37 37 38 39 40 40 42 43 42 42 43 43 44 45 47 50 49 47 48 48 45 43 43 41
44 44 42 39 37 36 36 35 33 32 30 29 29 30 30 32 32 33 33 34 36 38 38 36 35 36 37 38 39 40 42 43 41 40 40 39 39 38 36 36 36 38 41 42 40 40 41 41 42 40 38 37 37 38 39 40 42 44 44 43 43 43 43 45 47 49 49 47 46 47 46 44 42 39
45 45 43 39 37 37 36 35 33 31 30 28 29 30 30 31 32 32 32 33 34 36 38 37 35 36 38 39 39 39 41 41 39 40 40 39 37 36 35 37 40 43 44 44 43 43 44 43 42 40 39 38 38 38 37 38 39 42 44 45 45 44 44 45 46 48 48 46 45 45 46 45 41 39
44 45 42 39 37 37 36 35 33 31 29 28 29 30 30 31 31 31 32 32 32 34 37 38 37 37 38 38 38 37 36 38 39 40 38 35 34 35 37 41 45 47 48 46 45 44 45 43 42 42 41 40 39 38 38 37 38 40 43 46 48 47 45 44 45 47 48 45 42 41 43 45 41 38
43 43 42 39 37 37 35 34 32 29 27 27 28 29 29 29 30 30 31 31 31 33 36 37 37 37 36 36 35 32 31 34 38 39 37 36 34 35 41 47 50 50 50 49 46 46 45 44 44 44 43 41 40 39 39 38 38 39 42 44 47 49 48 46 44 46 47 44 41 40 40 43 42 38
42 42 41 39 37 35 34 32 30 27 27 27 28 28 27 28 29 29 29 29 30 32 33 34 35 35 36 35 32 30 29 33 36 34 34 41 44 43 48 53 53 53 52 49 48 47 46 46 45 44 43 42 41 40 40 40 41 41 41 43 46 48 50 49 46 47 48 44 41 41 41 43 42 40
41 41 41 39 36 34 32 30 27 26 26 27 26 26 26 26 27 28 27 28 29 30 30 33 34 35 36 36 33 32 33 35 36 33 34 44 52 52 54 55 53 53 52 50 50 49 47 48 47 45 45 43 41 42 43 43 45 43 40 42 46 48 51 51 47 47 49 47 44 43 43 44 43 40
40 40 40 38 35 32 30 28 26 25 26 26 25 24 24 25 26 26 26 27 27 28 29 32 34 34 36 37 36 35 35 35 36 38 40 46 52 53 56 57 53 50 50 50 51 50 48 50 49 45 45 45 44 45 46 45 46 46 41 38 41 45 48 51 49 47 46 45 44 44 43 43 42 39
40 39 39 37 34 30 28 26 25 25 25 24 24 23 23 24 24 23 24 24 25 27 29 31 32 33 36 36 36 37 37 36 37 40 42 46 51 52 55 59 53 45 44 47 51 55 53 49 48 47 47 48 47 47 49 49 48 47 42 37 37 39 44 48 51 51 49 45 43 43 42 42 41 39
39 38 38 36 32 29 27 26 26 25 24 23 23 22 22 21 21 21 22 23 24 26 28 29 30 33 35 36 36 37 38 38 39 42 42 44 47 46 47 53 53 46 43 46 53 59 54 45 49 55 55 53 52 50 51 52 48 44 39 36 34 35 38 43 47 50 51 50 47 43 41 40 40 38
38 37 36 35 32 29 28 27 25 24 23 22 21 20 19 20 20 19 20 20 21 23 26 29 31 34 36 37 37 37 38 40 41 42 43 42 42 43 43 49 55 51 44 45 52 59 57 49 54 61 58 55 55 53 51 49 43 38 36 37 36 35 36 39 42 44 46 48 47 45 43 41 39 39
37 36 34 32 31 29 28 26 24 23 22 21 20 20 20 22 22 22 23 23 24 26 29 32 35 36 35 35 36 36 36 39 41 41 43 42 42 46 47 50 56 55 46 44 52 62 63 55 54 59 58 56 55 51 45 39 33 30 31 35 37 37 38 38 40 41 42 45 47 48 48 45 42 40
35 34 32 30 30 29 27 25 24 22 21 21 21 22 23 25 25 27 28 29 31 32 33 34 35 33 31 31 34 35 33 35 39 39 41 43 44 49 53 55 59 57 50 47 51 61 62 52 51 60 59 53 49 43 37 32 28 27 28 30 33 35 37 38 39 39 40 42 46 48 48 46 43 40
33 32 30 29 29 28 25 23 22 21 21 20 21 22 23 25 25 26 28 29 31 30 28 27 27 26 28 30 32 33 32 34 37 39 42 46 49 53 57 57 56 54 49 43 41 51 58 52 52 58 53 45 43 41 38 36 32 29 30 30 31 32 35 37 39 39 39 40 42 45 46 43 41 39
30 29 27 28 27 26 23 21 20 19 19 19 19 21 22 23 24 25 26 26 24 21 19 19 21 23 26 27 28 29 31 34 37 40 42 44 45 48 51 53 52 48 45 40 36 46 56 52 48 51 47 43 45 45 41 38 34 32 31 31 32 33 34 36 37 38 39 39 40 44 45 41 38 37
27 27 26 26 26 23 21 19 19 18 18 17 18 19 19 21 23 23 21 19 15 13 13 15 18 20 21 23 24 26 27 30 33 36 39 39 38 41 46 50 51 47 45 44 39 42 48 44 38 43 47 45 46 46 44 40 35 30 26 25 28 30 32 35 37 38 38 38 39 41 42 39 36 35
25 26 26 25 23 21 19 18 17 16 16 16 16 17 17 20 21 18 14 11 9 9 11 12 14 15 17 20 22 24 25 27 29 32 35 36 36 39 42 46 50 50 47 43 33 29 36 38 37 42 48 49 47 44 41 37 31 26 22 21 23 26 28 32 35 38 39 38 38 40 40 38 34 32
23 24 24 23 20 18 17 16 15 14 15 15 14 15 17 18 17 12 9 7 7 8 9 10 12 14 16 18 21 23 24 26 28 29 32 33 34 37 40 41 44 47 46 40 33 32 39 43 42 41 40 44 48 44 36 33 32 30 28 27 26 26 26 28 31 35 38 39 39 40 40 37 33 31
24 24 23 21 19 17 15 14 13 13 14 13 13 15 16 15 11 7 6 6 7 8 9 10 13 15 17 19 21 23 24 25 27 28 29 31 32 34 38 39 39 43 46 43 41 43 44 43 43 40 34 34 43 46 42 40 39 35 32 29 26 24 23 24 28 32 37 40 39 40 39 37 34 32
26 25 23 20 18 16 14 13 12 12 12 12 14 13 12 10 7 4 4 5 6 8 10 11 14 16 18 19 20 22 23 24 26 28 28 29 30 31 35 37 39 43 46 42 36 37 40 40 41 43 40 38 43 47 48 47 42 36 32 28 22 19 19 21 24 28 34 38 38 38 39 37 35 34
27 25 22 19 17 14 13 13 12 11 10 12 13 11 9 8 5 3 4 5 6 8 10 12 14 16 18 19 20 21 22 24 26 27 27 28 29 29 30 32 35 40 43 38 29 28 36 40 39 40 42 43 44 45 47 46 40 33 28 24 19 17 18 20 22 24 29 34 36 37 38 37 36 35
26 24 20 17 15 14 13 12 11 10 11 13 13 11 9 6 4 3 4 5 6 8 10 11 14 16 18 19 20 21 23 24 26 27 27 27 28 28 27 26 27 30 34 33 27 25 31 37 37 36 37 41 43 44 46 43 37 31 27 23 22 22 21 21 21 21 26 31 33 34 36 35 34 33
22 21 18 16 16 15 13 11 10 11 13 13 12 10 8 5 4 4 4 5 6 8 9 11 14 15 17 19 21 22 23 24 25 26 27 27 28 29 28 25 23 24 27 27 25 23 26 30 32 31 32 36 40 41 42 42 39 35 32 28 25 23 20 19 20 21 24 28 29 31 32 32 33 33
18 17 16 16 16 15 14 13 13 13 13 12 10 8 7 5 4 4 4 4 5 7 9 11 13 15 17 18 20 21 22 23 25 26 27 28 29 30 30 28 26 26 28 26 23 20 20 23 25 26 27 29 33 35 36 38 38 35 32 31 26 19 16 16 18 19 22 26 27 29 31 32 33 34
16 16 16 16 16 17 16 15 15 13 12 11 10 9 7 6 5 3 3 4 5 7 9 11 13 15 17 18 18 19 21 23 25 27 28 29 30 31 32 30 29 29 30 28 24 19 19 19 17 18 20 19 21 24 26 29 31 30 27 27 25 19 16 18 18 19 22 25 26 27 28 28 31 33
18 18 19 19 19 19 18 15 13 12 12 11 11 9 8 6 4 3 3 3 5 6 9 12 13 15 17 17 18 19 20 22 25 27 29 31 32 32 34 34 33 32 31 30 29 24 18 16 12 9 14 18 20 21 19 17 23 27 23 19 19 18 14 13 15 19 23 23 22 23 24 26 29 31
23 22 22 22 21 19 16 14 13 14 13 12 11 10 8 6 4 3 2 2 5 7 9 11 13 14 16 18 19 20 21 22 24 26 28 30 32 33 34 36 37 36 35 34 33 30 21 14 13 10 8 12 18 23 22 18 18 22 19 12 10 14 12 10 13 19 21 19 18 19 21 25 28 29
25 23 21 21 20 17 16 15 15 15 14 13 12 10 8 6 4 2 1 3 5 7 9 10 12 14 17 19 20 22 23 23 24 26 27 29 31 33 34 36 37 38 39 38 39 38 31 18 10 13 12 10 12 19 26 24 20 20 20 14 3 7 11 12 13 16 18 19 18 17 17 21 25 27
22 21 19 19 18 17 16 17 17 16 15 13 12 10 8 6 5 3 0 2 5 6 8 10 13 15 17 20 21 23 25 25 25 26 27 28 30 32 34 36 37 37 39 39 40 41 39 28 11 4 7 8 10 13 23 29 24 21 22 20 12 6 10 12 13 16 18 18 19 19 18 18 21 24
20 19 18 18 18 17 17 18 17 16 15 14 11 10 8 6 5 3 1 2 3 5 7 10 12 14 17 20 22 24 25 27 27 28 28 29 30 32 33 35 36 37 38 39 39 40 40 36 26 15 11 10 5 7 19 29 29 24 22 21 17 11 11 12 14 16 16 16 17 18 16 16 18 21
18 18 18 18 18 19 19 19 18 17 15 13 11 10 8 7 5 4 2 1 2 4 7 9 12 14 17 19 21 23 25 26 28 29 30 30 31 31 32 34 35 36 37 37 38 38 38 38 34 28 26 25 21 17 20 28 30 28 24 22 18 14 11 10 14 15 13 14 17 15 12 13 16 18
17 17 18 18 17 18 19 19 18 17 15 13 11 9 8 7 6 4 2 1 1 3 6 9 11 14 16 18 20 22 24 26 28 30 31 32 32 32 33 34 34 35 36 37 37 37 37 38 36 33 31 31 30 28 25 27 30 28 25 22 20 18 16 13 14 15 12 13 17 16 13 12 14 16
15 16 18 17 17 18 19 19 18 17 15 13 11 9 8 7 6 5 3 2 1 3 6 8 11 13 15 18 20 22 24 25 27 29 31 32 33 34 34 34 34 34 35 36 36 36 36 37 37 35 32 30 29 29 28 28 31 30 26 23 21 18 17 16 16 15 12 10 13 15 14 12 13 15
14 14 16 16 17 19 20 19 18 17 14 12 11 9 8 7 6 5 4 2 1 3 5 7 10 12 14 17 19 21 24 25 27 28 30 31 32 33 34 34 34 34 34 35 37 37 37 37 37 36 32 28 24 22 23 25 27 26 24 23 21 18 16 16 16 13 12 9 9 11 11 9 11 13
15 14 14 14 16 18 19 19 18 16 14 13 10 9 8 7 7 6 5 3 2 2 4 6 9 11 13 16 18 20 22 24 26 27 28 29 31 32 32 33 33 34 34 35 36 37 38 37 36 35 33 28 22 19 21 24 23 23 23 24 23 20 17 17 15 11 10 10 9 9 9 9 10 12
17 16 15 15 16 18 19 19 18 16 15 13 10 9 8 8 7 7 5 4 3 2 4 6 8 10 12 15 17 19 21 23 25 26 27 28 29 30 31 32 33 33 34 35 36 36 36 35 33 31 30 28 26 25 28 31 30 27 25 24 23 21 18 17 16 13 10 11 12 12 11 12 14 15
18 17 17 16 17 18 18 18 18 16 14 12 10 9 9 9 8 7 6 5 4 3 4 5 7 9 11 14 16 19 21 22 24 25 27 28 29 30 30 32 33 33 33 33 33 33 33 32 31 30 30 31 32 32 33 34 34 31 27 23 21 20 19 17 18 16 12 13 15 15 13 14 15 14
17 17 17 17 17 19 19 19 18 16 14 11 10 9 9 9 9 8 7 6 5 5 5 5 7 9 11 14 16 18 20 22 23 25 26 27 28 30 30 30 31 31 31 31 30 30 30 30 31 31 31 32 33 33 33 32 32 32 31 27 22 20 19 17 17 16 13 13 16 18 16 15 13 12
15 15 16 16 17 19 20 20 19 16 14 12 11 10 10 10 9 8 7 7 6 6 6 6 8 9 11 13 15 17 19 21 23 24 25 26 27 28 28 29 29 29 30 30 30 29 30 30 31 31 32 33 33 32 32 33 32 31 30 29 25 22 19 17 16 16 16 15 15 16 16 16 15 12
12 13 15 16 17 18 19 20 19 17 15 13 12 11 10 10 9 8 8 7 7 7 7 7 8 9 10 12 14 16 18 20 21 23 24 25 25 26 27 27 28 28 29 31 31 31 30 30 30 31 31 31 31 31 31 31 32 30 28 28 27 26 23 20 17 17 18 19 17 16 14 13 13 12
Wind_Direction
248 249 251 251 251 251 250 251 253 255 258 260 261 261 261 261 263 268 275 277 277 282 288 291 294 297 297 297 298 300 302 302 303 303 301 300 297 295 295 294 294 294 292 292 292 291 290 288 287 286 284 284 283 282 279 275 273 270 270 270 270 271 269 267 267 266 266 265 264 264 266 266 262 265
247 247 249 249 249 250 249 251 253 254 256 258 259 260 260 259 259 261 268 275 277 280 286 288 289 293 295 295 297 298 300 301 302 303 302 301 298 296 296 295 294 293 291 291 293 293 292 290 289 288 286 285 285 285 280 275 272 269 269 268 267 269 268 267 267 264 263 264 265 265 264 265 266 266
244 245 246 246 247 247 248 249 251 252 255 257 258 258 257 257 258 258 262 269 274 275 280 284 287 292 294 295 296 297 298 300 301 303 303 301 299 298 296 295 294 291 289 291 295 296 295 293 292 290 288 286 285 285 282 276 273 270 268 266 265 267 266 265 267 265 262 262 264 266 262 262 266 266
242 243 245 245 245 246 246 248 249 251 255 256 257 257 257 256 257 257 256 261 268 272 276 283 287 291 293 294 295 296 298 299 301 304 305 302 300 299 297 296 293 288 289 294 297 298 296 294 294 291 288 287 284 282 281 276 273 272 269 266 265 266 265 264 265 265 263 261 262 264 263 262 265 267
242 241 242 243 244 245 245 247 248 250 253 255 255 255 255 255 254 254 254 258 267 273 278 283 287 291 293 293 294 297 298 299 302 305 305 304 302 301 299 295 291 291 295 298 299 299 297 296 295 291 286 286 283 279 279 276 272 270 270 268 266 265 264 263 263 262 262 262 259 259 264 264 264 266
244 240 239 240 241 243 244 246 248 250 251 253 255 254 254 255 253 253 254 258 266 273 278 283 287 290 290 291 294 297 298 300 304 305 305 305 304 302 299 294 294 298 300 300 300 300 299 298 296 291 285 284 283 280 278 277 274 269 266 266 264 263 262 262 261 259 259 262 259 256 261 262 261 265
246 241 238 237 237 238 242 245 247 249 251 252 253 254 254 254 253 254 254 258 265 272 279 283 286 288 288 291 295 297 297 299 303 305 306 307 305 302 298 295 298 301 300 301 302 301 301 298 295 292 286 284 284 282 278 276 275 269 264 264 262 260 259 258 259 257 256 260 259 255 258 259 260 264
247 243 238 236 234 234 238 242 245 247 249 250 252 252 252 252 253 254 254 258 265 272 279 282 283 285 287 291 295 295 297 299 302 306 307 307 304 300 296 295 298 301 301 302 302 302 301 298 296 293 289 287 286 284 281 279 276 271 266 263 261 260 258 256 256 254 253 258 259 257 257 256 259 263
247 244 239 236 234 233 235 239 243 245 247 249 250 251 251 251 252 254 255 260 265 271 277 281 283 285 289 293 295 294 295 298 304 307 306 304 299 293 293 296 299 301 302 302 302 302 301 298 298 297 293 291 289 287 287 283 279 275 269 263 260 259 257 256 256 253 252 256 258 258 258 255 257 261
246 244 240 237 235 233 234 238 241 244 245 247 249 249 250 252 252 254 256 260 265 271 277 281 284 287 290 294 296 295 294 298 305 307 304 302 297 290 293 299 302 302 302 303 303 303 302 301 301 298 295 293 290 290 289 285 281 278 272 266 261 258 256 255 256 253 251 255 256 257 259 256 257 260
245 243 239 236 235 234 234 238 240 242 244 246 247 249 250 251 252 254 257 260 266 274 280 282 284 287 290 291 292 293 295 299 302 301 299 301 301 297 298 301 303 303 303 304 304 304 303 302 300 296 294 292 289 290 290 287 286 283 275 267 262 258 255 253 254 251 248 251 254 254 257 257 257 259
243 242 238 236 235 235 235 236 238 241 243 244 246 248 249 249 251 253 256 261 269 277 281 283 285 289 291 292 293 293 295 297 299 297 295 298 301 302 302 302 303 304 305 306 305 303 302 301 300 298 297 295 292 292 293 291 292 290 280 269 262 259 256 252 252 252 249 251 254 255 256 256 257 258
241 239 237 235 235 235 234 235 237 239 241 242 244 245 246 248 250 252 256 265 274 279 282 283 287 290 290 292 295 295 295 296 296 297 297 297 299 302 302 302 302 303 305 307 305 303 303 302 300 298 297 297 296 295 295 295 294 293 286 274 264 260 257 253 251 250 249 251 253 253 254 255 255 256
239 237 236 235 235 234 233 232 234 236 238 240 242 243 246 247 248 252 260 269 274 277 281 284 287 289 288 291 294 295 296 296 295 296 297 297 299 302 302 302 303 304 305 306 304 303 303 300 298 296 294 294 296 295 295 296 294 292 288 278 267 260 257 255 252 250 247 248 250 251 253 254 254 254
238 236 235 234 233 231 230 229 231 233 235 238 241 244 246 246 249 258 264 267 272 277 282 284 286 286 287 291 293 293 294 295 295 295 295 297 300 301 300 299 301 304 305 304 302 301 301 297 295 298 296 295 299 299 298 298 295 289 284 279 272 263 257 254 253 252 250 248 250 251 252 253 253 253
237 236 235 233 229 227 226 228 229 231 232 235 238 241 241 243 252 263 263 263 270 276 278 279 280 283 286 290 292 292 293 294 296 296 297 298 299 297 292 290 294 300 302 301 297 297 298 295 295 298 297 298 303 304 300 297 292 284 277 273 271 267 261 255 252 252 251 249 249 250 249 250 251 251
237 237 236 231 225 224 225 226 228 228 229 231 233 232 231 234 240 243 244 251 261 268 271 275 279 283 285 287 290 293 295 298 300 301 302 302 300 295 289 287 291 295 295 292 292 294 296 296 296 298 299 302 305 304 300 297 291 280 271 266 265 263 260 257 253 251 250 248 248 249 248 249 250 249
236 237 235 227 221 221 222 224 225 226 227 228 231 231 231 235 239 241 245 254 264 269 272 275 279 284 288 290 295 302 306 305 304 304 302 298 294 290 287 286 288 290 290 289 288 291 295 298 298 299 302 305 305 302 299 299 294 284 277 270 265 261 258 255 252 250 250 249 248 248 249 248 247 247
237 237 231 222 220 220 221 223 224 225 227 229 232 234 237 243 249 253 258 264 270 274 276 279 285 292 296 298 301 305 304 299 295 292 289 288 287 286 287 289 289 291 294 293 285 286 294 299 299 301 305 305 302 301 299 298 294 287 282 277 271 266 260 254 251 249 248 247 246 246 247 246 244 244
236 233 225 218 218 220 220 221 222 223 227 230 233 236 241 249 255 260 266 270 273 275 277 280 286 291 294 296 297 296 293 291 290 289 289 291 292 291 292 294 296 299 302 300 289 287 294 299 299 301 305 303 301 302 301 298 297 293 287 281 275 269 262 255 251 249 247 246 245 244 244 244 243 242
230 223 217 214 216 218 217 217 219 222 226 228 232 238 245 253 260 265 270 272 272 274 276 280 285 290 295 299 300 301 301 300 299 298 299 302 301 295 295 298 302 306 307 304 297 289 292 301 303 301 303 302 299 301 303 301 301 299 292 281 271 266 261 256 250 247 246 243 243 243 242 241 243 243
223 215 212 212 215 216 213 213 216 221 225 227 233 243 250 258 265 270 271 270 277 288 292 293 296 301 305 307 311 315 316 314 310 307 307 309 305 298 297 299 304 308 309 309 306 293 292 301 302 299 301 301 298 300 303 303 301 296 289 281 274 268 263 259 252 246 243 240 239 240 240 239 240 242
213 208 208 209 210 208 205 207 208 212 222 231 239 249 256 261 266 267 266 275 293 300 300 303 308 313 316 319 323 325 323 321 319 317 315 312 306 301 300 299 300 303 307 309 305 297 297 301 299 298 301 302 302 304 304 301 299 294 289 285 277 269 265 263 256 246 239 237 236 236 237 237 237 237
204 202 202 200 199 198 197 200 201 206 220 236 244 249 255 259 258 254 266 291 302 305 312 320 324 327 328 329 329 328 327 327 327 325 322 317 311 305 302 300 296 295 300 306 306 303 303 302 299 299 296 290 295 301 301 299 300 298 297 294 282 269 265 264 257 246 236 232 233 234 235 235 234 231
207 202 199 195 193 193 195 198 202 208 222 238 247 248 249 249 247 255 285 299 307 311 320 326 329 331 332 332 331 330 331 333 333 334 331 325 318 310 305 302 298 296 302 312 314 307 302 299 297 297 295 288 288 294 299 302 303 301 300 300 289 271 265 265 259 247 237 230 229 231 232 232 231 228
211 207 201 195 194 194 196 200 204 212 220 232 243 244 236 236 247 275 292 296 308 315 320 327 332 334 334 334 335 335 336 337 338 340 339 333 326 319 312 306 301 302 309 317 317 307 300 297 295 295 295 293 291 292 295 299 305 308 304 299 290 276 271 274 267 251 239 232 227 228 230 229 229 225
212 209 201 193 193 197 202 205 207 214 220 226 232 230 223 225 240 262 276 290 305 313 321 331 336 336 335 337 339 340 342 342 341 343 343 341 335 329 323 317 310 311 316 318 318 314 302 296 295 294 292 292 292 292 290 293 302 310 306 297 289 280 275 277 270 251 236 230 227 228 228 228 228 223
210 203 195 188 191 199 206 210 211 216 223 225 222 215 208 206 217 238 264 290 303 315 328 337 339 338 338 340 341 342 344 344 342 344 346 347 344 341 337 334 332 333 333 327 324 320 304 294 295 295 290 287 286 285 287 291 298 302 301 297 290 281 275 275 269 251 233 225 224 226 226 224 223 219
204 194 189 188 195 203 210 212 212 215 219 218 208 196 192 197 210 231 262 288 306 325 335 336 339 342 341 342 343 343 345 345 345 346 349 350 350 349 348 347 349 352 353 347 337 323 305 299 304 307 302 293 285 284 287 291 296 300 301 299 292 277 259 253 251 241 228 220 218 221 221 220 219 215
192 186 188 193 199 205 210 212 213 213 210 200 191 184 187 196 206 229 260 291 318 335 341 340 342 346 345 344 344 343 345 348 350 351 351 352 355 355 355 356 358 1 1 358 352 338 314 303 311 324 328 324 313 306 303 299 301 307 307 302 296 278 246 232 230 222 215 214 214 216 218 219 218 213
184 183 188 197 202 206 209 209 208 205 195 185 183 183 188 195 206 228 257 307 329 337 346 349 349 349 347 346 347 350 351 353 355 356 356 356 358 360 360 1 3 5 6 4 4 359 332 298 288 319 347 1 1 351 343 331 322 320 317 310 297 276 243 223 224 216 206 207 212 213 214 217 217 212
183 186 192 199 203 206 206 202 198 194 186 180 182 184 187 194 203 222 258 327 346 347 351 354 354 354 353 352 354 357 359 359 358 359 360 360 1 2 5 6 5 6 7 7 8 9 356 310 270 269 316 356 1 358 3 9 356 342 343 340 294 257 229 215 228 220 202 197 204 207 209 214 212 208
188 192 198 202 203 201 197 194 193 188 182 180 184 185 185 192 197 210 270 342 357 355 353 354 358 0 359 359 360 1 4 5 3 2 3 3 3 4 7 10 9 7 7 8 8 8 6 352 287 258 272 294 313 337 358 12 14 12 17 25 8 232 220 216 218 206 187 182 193 200 207 213 211 208
195 199 202 203 201 196 192 190 187 183 180 182 185 184 183 188 192 197 278 357 359 355 355 0 5 5 2 2 4 4 5 6 7 6 6 6 7 8 9 11 12 11 9 10 10 7 6 7 6 276 272 280 278 319 360 13 15 22 34 43 58 121 180 195 193 186 181 183 193 202 211 218 215 211
201 206 204 200 195 191 191 189 183 181 183 185 184 184 184 184 185 189 184 15 0 351 357 6 10 9 7 5 5 6 7 7 7 8 8 7 8 11 12 12 13 14 13 12 13 12 7 6 14 23 30 40 35 356 14 21 19 23 40 50 60 98 150 177 185 188 191 194 196 201 210 215 212 208
204 206 202 197 192 190 189 186 181 182 186 186 184 184 184 184 184 184 170 49 2 351 358 8 11 11 10 9 7 7 8 8 8 9 9 9 9 10 12 14 14 15 16 14 14 15 12 8 11 15 19 26 26 15 21 31 27 23 34 48 56 74 104 147 179 190 196 194 190 192 202 207 202 196
203 201 197 195 194 191 188 184 183 185 187 186 185 184 183 185 188 183 172 154 355 352 360 7 11 11 11 11 10 9 9 10 10 10 10 10 10 9 11 13 13 14 17 18 16 16 15 14 15 15 13 13 11 5 13 33 36 30 31 40 45 52 67 100 148 169 177 177 174 176 188 199 191 182
200 199 196 194 191 189 187 184 185 187 189 188 187 186 185 188 190 187 180 184 317 350 360 6 9 10 10 9 9 10 11 11 11 12 11 11 11 11 10 11 12 12 15 18 19 19 18 18 19 20 16 9 4 359 2 18 31 33 31 33 38 45 58 76 103 128 142 151 154 158 172 185 178 174
204 202 199 195 191 189 187 186 187 189 191 191 190 190 190 192 194 194 192 197 263 340 356 3 6 7 8 8 8 9 11 11 11 13 13 12 11 11 10 10 10 11 13 16 18 19 20 20 21 23 22 15 8 5 6 14 25 32 32 33 39 48 57 61 70 95 121 135 142 150 165 180 177 178
208 204 202 198 194 192 190 188 189 191 193 195 195 193 195 200 202 201 202 209 240 323 347 355 1 3 4 6 8 9 10 11 11 12 13 13 12 11 11 10 10 10 12 15 18 19 20 21 21 22 23 21 19 23 27 28 33 37 38 38 41 48 58 62 62 76 104 119 138 159 171 176 176 182
209 204 202 199 196 196 194 191 192 195 197 198 198 197 202 209 211 209 213 222 240 292 332 344 351 357 359 1 5 7 9 11 11 11 11 12 12 11 10 9 10 11 12 14 16 17 19 21 22 22 23 23 22 26 31 31 32 36 41 44 43 46 56 69 72 76 91 114 138 153 150 141 148 160
209 205 202 200 197 197 195 194 197 200 200 201 202 204 211 218 218 219 224 231 247 280 313 332 341 348 354 358 2 4 6 7 9 10 10 9 10 10 11 10 9 10 11 13 15 16 16 18 20 21 23 24 24 28 32 30 28 32 40 47 49 47 51 63 73 79 92 111 123 126 119 115 126 136
205 203 204 203 201 198 195 196 199 202 203 205 208 212 220 224 226 229 234 241 255 276 296 318 330 339 348 354 357 0 2 3 6 8 9 8 8 8 9 9 9 8 9 11 12 14 15 17 18 20 24 26 27 30 33 33 29 30 35 40 45 51 54 59 68 77 87 102 108 107 104 106 112 113
204 205 207 206 205 203 199 198 200 203 205 209 214 219 224 229 232 235 241 250 261 274 289 307 321 332 340 347 352 356 357 359 2 4 5 6 6 6 6 7 7 6 6 7 9 11 14 17 17 19 23 27 28 29 32 33 32 32 33 35 39 47 55 61 70 78 85 92 98 99 100 105 109 108
211 211 212 212 210 207 204 201 202 205 209 213 219 225 228 233 239 243 247 257 268 276 288 299 310 323 332 339 345 349 352 355 359 0 1 2 3 3 3 4 5 6 6 6 6 8 11 14 17 19 22 25 28 30 32 33 34 34 34 35 36 41 47 53 60 69 75 81 86 90 92 94 97 99